STARLINK-5886 (56350 NORAD) Tracking and Keplerian Element Data

This shows tracking and keplerian element data for the satellite.

Feedback or suggestion? Click here.




ElementValue
Catalog56350
NameSTARLINK-5886
Epoch Orbit181
Epoch Day127.00001157
Epoch Year2023
RAAN126.475
Inclination97.6635
Eccentricity0.0001436
Argument of Perigee92.06
Mean Anonmoly240.0176
Mean Motion15.68242914
Decay Rate-0.00868628
L11 56350U 23058AK 23127.00001157 -.00868628 00000+0 -86409-2 0 9994
L22 56350 97.6635 126.4750 0001436 92.0600 240.0176 15.68242914 1815



Live tracking and technical data element details for STARLINK-5886 (NORAD 56350). STARLINK-5886 can be tracked NOW for your location showing map with azimuth and elevation plus other details from your city location.







IsCatalogInMostPopularTable: catalog: 56350, numindb: 3
Update: records affected: 1



GetName: 56350 STARLINK-5886

Hit Count: updated at: Sat, 03 Jun 2023 17:28:24 GMT